Regional Weather Roundup
Issued by NWS

Home | Current Version | Previous Version | Graphics & Text | Print | Product List | Glossary On
Versions: 1 2 3 4 5 6 7 8 9 10 11 12 13 14 15 16 17 18 19 20 21 22 23 24 25 26 27 28 29 30 31 32 33 34 35 36 37 38 39 40 41 42 43 44 45 46 47 48 49 50
000
ASUS43 KLMK 040610
RWRKY
KENTUCKY REGIONAL WEATHER ROUNDUP
NATIONAL WEATHER SERVICE LOUISVILLE KY
200 AM EDT TUE AUG 04 2015

NOTE "FAIR" INDICATES FEW OR NO CLOUDS BELOW 12,000 FEET
WITH NO SIGNIFICANT WEATHER AND/OR OBSTRUCTIONS TO VISIBILITY.

KYZ001>023-026-027-061>063-070>075-040700-
WESTERN AND SOUTH CENTRAL KENTUCKY

CITY           SKY/WX    TMP DP  RH WIND       PRES   REMARKS
PADUCAH        PTCLDY    74  72  93 SW3       29.92S
HENDERSON      CLEAR     72  68  88 SW3       29.92S
OWENSBORO      CLEAR     77  72  84 CALM      29.93S
HOPKINSVILLE   CLEAR     75  71  85 SW3       29.94R
BOWLING GREEN  CLEAR     78  70  76 SW3       29.94S
GLASGOW        CLEAR    N/A N/A N/A CALM      29.95S
$$

KYZ024-025-028>034-038-045-046-053-040700-
NORTH CENTRAL KENTUCKY

CITY           SKY/WX    TMP DP  RH WIND       PRES   REMARKS
LOUISVILLE/SDF PTCLDY    78  69  73 W5        29.92S
LOUISVILLE/LOU PTCLDY    79  69  71 NW5       29.93R
FORT KNOX      CLEAR     73  70  91 NW5       29.93R
$$

KYZ035>037-039>044-047>052-055>060-089>105-040700-
NORTHEAST KENTUCKY

CITY           SKY/WX    TMP DP  RH WIND       PRES   REMARKS
LEXINGTON      PTCLDY    71  66  84 SE7       29.95S
COVINGTON      PTCLDY    70  65  84 CALM      29.93S
FRANKFORT      PTCLDY    73  66  78 CALM      29.93R
$$

KYZ054-064>069-076>088-106>120-040700-
SOUTHEAST KENTUCKY

CITY           SKY/WX    TMP DP  RH WIND       PRES   REMARKS
JACKSON        MOCLDY    65  63  93 CALM      29.99S FOG
LONDON         PTCLDY    76  67  73 SW3       29.97F
SOMERSET       MOCLDY    72  72 100 CALM      29.97S
MIDDLESBORO    PTCLDY    68  67  96 CALM      30.00S
MONTICELLO     CLEAR     68  68 100 CALM      30.00R FOG
$$



USA.gov is the U.S. government's official web portal to all federal, state and local government web resources and services.